| time (UTC) | temp C | wind direction | speed KPH | gust KPH | rain 1hr cm | rain 24hr cm | rain mn cm | humidity % | barometer mb |
| 20260507170217 | 18 | 273 | 17.7 | 25.7 | 0.00 | 0.28 | 0.03 | 27 | 1014.7 |
| 20260507165715 | 18 | 269 | 17.7 | 25.7 | 0.00 | 0.28 | 0.03 | 26 | 1014.6 |
| 20260507165003 | 18 | 267 | 19.3 | 29.0 | 0.00 | 0.30 | 0.03 | 27 | 1014.8 |
| 20260507164503 | 18 | 265 | 17.7 | 29.0 | 0.00 | 0.30 | 0.03 | 29 | 1014.9 |
| 20260507164004 | 18 | 265 | 12.9 | 25.7 | 0.00 | 0.30 | 0.03 | 29 | 1014.8 |
| 20260507163503 | 17 | 266 | 12.9 | 19.3 | 0.00 | 0.30 | 0.03 | 30 | 1015.1 |
| 20260507163003 | 17 | 263 | 12.9 | 22.5 | 0.00 | 0.30 | 0.03 | 37 | 1015.1 |
| 20260507162504 | 17 | 248 | 14.5 | 22.5 | 0.00 | 0.33 | 0.03 | 38 | 1015.2 |
| 20260507162003 | 16 | 252 | 12.9 | 22.5 | 0.00 | 0.33 | 0.03 | 37 | 1015.3 |
| 20260507161503 | 16 | 268 | 12.9 | 19.3 | 0.00 | 0.33 | 0.03 | 38 | 1015.2 |
| 20260507161003 | 16 | 265 | 12.9 | 19.3 | 0.00 | 0.36 | 0.03 | 36 | 1015.4 |
| 20260507160504 | 15 | 265 | 12.9 | 19.3 | 0.00 | 0.36 | 0.03 | 38 | 1015.3 |
| 20260507160004 | 15 | 267 | 12.9 | 19.3 | 0.00 | 0.38 | 0.03 | 37 | 1015.3 |
| 20260507155716 | 15 | 265 | 11.3 | 19.3 | 0.00 | 0.38 | 0.03 | 40 | 1015.4 |
| 20260507155003 | 15 | 263 | 11.3 | 19.3 | 0.00 | 0.41 | 0.03 | 46 | 1015.4 |
| 20260507154505 | 14 | 251 | 11.3 | 16.1 | 0.00 | 0.43 | 0.03 | 44 | 1015.6 |
| 20260507154004 | 13 | 242 | 11.3 | 16.1 | 0.00 | 0.43 | 0.03 | 47 | 1015.6 |
| 20260507153712 | 13 | 241 | 11.3 | 16.1 | 0.00 | 0.43 | 0.03 | 44 | 1015.6 |
| 20260507153003 | 13 | 245 | 11.3 | 16.1 | 0.00 | 0.46 | 0.03 | 48 | 1015.8 |
| 20260507152504 | 12 | 252 | 9.7 | 16.1 | 0.00 | 0.46 | 0.03 | 54 | 1015.8 |
| 20260507152003 | 12 | 259 | 9.7 | 14.5 | 0.00 | 0.46 | 0.03 | 56 | 1015.9 |
| 20260507151508 | 12 | 261 | 9.7 | 14.5 | 0.00 | 0.46 | 0.03 | 57 | 1016.0 |
| 20260507151009 | 11 | 262 | 8.0 | 14.5 | 0.00 | 0.46 | 0.03 | 57 | 1016.1 |
| 20260507150504 | 11 | 261 | 9.7 | 16.1 | 0.03 | 0.48 | 0.03 | 63 | 1016.1 |
| 20260507150004 | 10 | 260 | 9.7 | 16.1 | 0.03 | 0.48 | 0.03 | 59 | 1016.2 |
| 20260507145503 | 10 | 259 | 8.0 | 14.5 | 0.03 | 0.48 | 0.03 | 64 | 1016.2 |
| 20260507145004 | 9 | 249 | 8.0 | 12.9 | 0.03 | 0.51 | 0.03 | 70 | 1016.2 |
| 20260507144504 | 9 | 245 | 8.0 | 12.9 | 0.03 | 0.51 | 0.03 | 71 | 1016.3 |
| 20260507144215 | 8 | 246 | 8.0 | 12.9 | 0.03 | 0.51 | 0.03 | 72 | 1016.3 |
| 20260507143504 | 8 | 249 | 8.0 | 12.9 | 0.03 | 0.53 | 0.03 | 75 | 1016.3 |
| 20260507143008 | 7 | 249 | 8.0 | 12.9 | 0.03 | 0.53 | 0.03 | 75 | 1016.2 |
| 20260507142504 | 7 | 252 | 8.0 | 12.9 | 0.03 | 0.56 | 0.03 | 77 | 1016.4 |
| 20260507142217 | 7 | 252 | 8.0 | 12.9 | 0.03 | 0.56 | 0.03 | 77 | 1016.4 |
| 20260507141504 | 6 | 247 | 9.7 | 12.9 | 0.03 | 0.56 | 0.03 | 77 | 1016.4 |
| 20260507141003 | 6 | 247 | 9.7 | 14.5 | 0.03 | 0.56 | 0.03 | 79 | 1016.6 |
| 20260507140716 | 6 | 249 | 9.7 | 14.5 | 0.00 | 0.53 | 0.00 | 79 | 1016.6 |
| 20260507140004 | 6 | 245 | 6.4 | 12.9 | 0.00 | 0.53 | 0.00 | 81 | 1016.4 |
| 20260507135504 | 5 | 239 | 6.4 | 11.3 | 0.00 | 0.53 | 0.00 | 82 | 1016.5 |
| 20260507135003 | 5 | 239 | 6.4 | 11.3 | 0.00 | 0.53 | 0.00 | 81 | 1016.4 |
| 20260507134503 | 5 | 251 | 6.4 | 9.7 | 0.00 | 0.56 | 0.00 | 82 | 1016.5 |
| 20260507134003 | 4 | 257 | 6.4 | 11.3 | 0.00 | 0.56 | 0.00 | 84 | 1016.6 |
| 20260507133503 | 4 | 250 | 6.4 | 11.3 | 0.00 | 0.56 | 0.00 | 84 | 1016.7 |
| 20260507133003 | 4 | 251 | 4.8 | 11.3 | 0.00 | 0.56 | 0.00 | 85 | 1016.7 |
| 20260507132504 | 3 | 254 | 1.6 | 6.4 | 0.00 | 0.56 | 0.00 | 87 | 1016.7 |
| 20260507132004 | 3 | 212 | 0.0 | 3.2 | 0.00 | 0.58 | 0.00 | 88 | 1016.5 |
| 20260507131503 | 3 | 212 | 0.0 | 3.2 | 0.00 | 0.58 | 0.00 | 90 | 1016.4 |
| 20260507131003 | 3 | 0 | 0.0 | 0.0 | 0.00 | 0.58 | 0.00 | 90 | 1016.4 |
| 20260507130504 | 2 | 0 | 0.0 | 0.0 | 0.00 | 0.58 | 0.00 | 92 | 1016.4 |
| 20260507130004 | 1 | 0 | 0.0 | 0.0 | 0.00 | 0.58 | 0.00 | 91 | 1016.4 |
| 20260507125503 | 1 | 0 | 0.0 | 0.0 | 0.00 | 0.58 | 0.00 | 91 | 1016.4 |
| 20260507125215 | 0 | 0 | 0.0 | 0.0 | 0.00 | 0.58 | 0.00 | 91 | 1016.3 |
| 20260507124503 | 0 | 0 | 0.0 | 0.0 | 0.00 | 0.58 | 0.00 | 91 | 1016.4 |
| 20260507124003 | 0 | 0 | 0.0 | 0.0 | 0.00 | 0.58 | 0.00 | 91 | 1016.3 |
| 20260507123714 | 0 | 0 | 0.0 | 0.0 | 0.00 | 0.58 | 0.00 | 92 | 1016.2 |
| 20260507123003 | 0 | 0 | 0.0 | 0.0 | 0.00 | 0.58 | 0.00 | 92 | 1016.2 |
| 20260507122503 | -1 | 0 | 0.0 | 0.0 | 0.00 | 0.58 | 0.00 | 93 | 1016.2 |
| 20260507122004 | -1 | 0 | 0.0 | 0.0 | 0.00 | 0.58 | 0.00 | 93 | 1016.2 |
| 20260507121716 | -1 | 0 | 0.0 | 0.0 | 0.00 | 0.58 | 0.00 | 93 | 1016.2 |
| 20260507121003 | -2 | 0 | 0.0 | 0.0 | 0.00 | 0.58 | 0.00 | 91 | 1016.2 |
| 20260507120717 | -2 | 0 | 0.0 | 0.0 | 0.00 | 0.58 | 0.00 | 91 | 1016.2 |
| 20260507120009 | -1 | 0 | 0.0 | 0.0 | 0.00 | 0.58 | 0.00 | 91 | 1016.1 |
| 20260507115503 | -1 | 0 | 0.0 | 0.0 | 0.00 | 0.58 | 0.00 | 92 | 1016.1 |
| 20260507115216 | -1 | 0 | 0.0 | 0.0 | 0.00 | 0.58 | 0.00 | 92 | 1016.0 |
| 20260507114504 | -1 | 0 | 0.0 | 0.0 | 0.00 | 0.58 | 0.00 | 92 | 1016.3 |
| 20260507114004 | -1 | 0 | 0.0 | 0.0 | 0.00 | 0.58 | 0.00 | 92 | 1016.3 |
| 20260507113504 | -1 | 0 | 0.0 | 0.0 | 0.00 | 0.58 | 0.00 | 91 | 1016.4 |
| 20260507113008 | -1 | 0 | 0.0 | 0.0 | 0.00 | 0.58 | 0.00 | 91 | 1016.3 |
| 20260507112504 | -1 | 0 | 0.0 | 0.0 | 0.00 | 0.58 | 0.00 | 92 | 1016.1 |
| 20260507112004 | -1 | 0 | 0.0 | 0.0 | 0.00 | 0.58 | 0.00 | 91 | 1016.1 |
| 20260507111504 | -1 | 0 | 0.0 | 0.0 | 0.00 | 0.58 | 0.00 | 91 | 1016.1 |
| 20260507111003 | -1 | 0 | 0.0 | 0.0 | 0.00 | 0.58 | 0.00 | 91 | 1016.4 |
| 20260507110504 | -1 | 212 | 0.0 | 3.2 | 0.00 | 0.58 | 0.00 | 90 | 1016.3 |
| 20260507110003 | -1 | 225 | 1.6 | 6.4 | 0.00 | 0.58 | 0.00 | 90 | 1016.5 |
| 20260507105503 | 0 | 228 | 1.6 | 6.4 | 0.00 | 0.58 | 0.00 | 91 | 1016.6 |
| 20260507105004 | 0 | 213 | 3.2 | 9.7 | 0.00 | 0.61 | 0.00 | 90 | 1016.7 |
| 20260507104504 | 0 | 216 | 1.6 | 9.7 | 0.00 | 0.61 | 0.00 | 90 | 1016.7 |
| 20260507104004 | 0 | 260 | 1.6 | 6.4 | 0.00 | 0.61 | 0.00 | 90 | 1016.8 |
| 20260507103716 | 0 | 273 | 1.6 | 6.4 | 0.00 | 0.61 | 0.00 | 91 | 1016.7 |
| 20260507103004 | 0 | 269 | 3.2 | 6.4 | 0.00 | 0.61 | 0.00 | 91 | 1016.7 |
| 20260507102717 | 0 | 266 | 1.6 | 4.8 | 0.00 | 0.61 | 0.00 | 91 | 1016.7 |
| 20260507102009 | 0 | 266 | 3.2 | 4.8 | 0.00 | 0.61 | 0.00 | 90 | 1016.9 |
| 20260507101503 | 0 | 264 | 4.8 | 8.0 | 0.00 | 0.61 | 0.00 | 90 | 1016.9 |
| 20260507101003 | 0 | 256 | 6.4 | 9.7 | 0.00 | 0.61 | 0.00 | 91 | 1016.9 |
| 20260507100503 | 0 | 250 | 6.4 | 11.3 | 0.00 | 0.61 | 0.00 | 91 | 1016.9 |
| 20260507100004 | 0 | 252 | 8.0 | 11.3 | 0.00 | 0.61 | 0.00 | 91 | 1017.1 |
| 20260507095714 | 0 | 255 | 8.0 | 11.3 | 0.00 | 0.61 | 0.00 | 91 | 1017.1 |
| 20260507095003 | 0 | 249 | 4.8 | 9.7 | 0.00 | 0.61 | 0.00 | 92 | 1017.1 |
| 20260507094504 | 0 | 246 | 3.2 | 8.0 | 0.00 | 0.61 | 0.00 | 91 | 1017.0 |
| 20260507094004 | 0 | 263 | 1.6 | 4.8 | 0.00 | 0.61 | 0.00 | 89 | 1017.1 |
| 20260507093716 | 0 | 275 | 1.6 | 3.2 | 0.00 | 0.61 | 0.00 | 90 | 1017.0 |
| 20260507093003 | 0 | 275 | 1.6 | 3.2 | 0.00 | 0.61 | 0.00 | 90 | 1016.8 |
| 20260507092718 | 0 | 275 | 1.6 | 3.2 | 0.00 | 0.61 | 0.00 | 90 | 1016.8 |
| 20260507092003 | 0 | 275 | 3.2 | 4.8 | 0.00 | 0.64 | 0.00 | 89 | 1017.1 |
| 20260507091503 | 0 | 274 | 4.8 | 9.7 | 0.00 | 0.64 | 0.00 | 89 | 1017.1 |
| 20260507091004 | 0 | 269 | 6.4 | 11.3 | 0.00 | 0.64 | 0.00 | 90 | 1017.2 |
| 20260507090503 | 0 | 258 | 8.0 | 11.3 | 0.00 | 0.64 | 0.00 | 91 | 1017.2 |
| 20260507090005 | 0 | 248 | 6.4 | 11.3 | 0.00 | 0.66 | 0.00 | 91 | 1017.3 |
| 20260507085715 | 0 | 245 | 4.8 | 11.3 | 0.00 | 0.66 | 0.00 | 92 | 1017.3 |
| 20260507085008 | 0 | 243 | 1.6 | 4.8 | 0.00 | 0.66 | 0.00 | 91 | 1017.3 |
| 20260507084716 | 0 | 243 | 1.6 | 4.8 | 0.00 | 0.66 | 0.00 | 91 | 1017.3 |
| 20260507084004 | 0 | 0 | 0.0 | 0.0 | 0.00 | 0.69 | 0.00 | 90 | 1017.2 |
| 20260507083503 | 0 | 243 | 1.6 | 3.2 | 0.00 | 0.71 | 0.00 | 90 | 1017.1 |
| 20260507083004 | 0 | 244 | 3.2 | 6.4 | 0.00 | 0.71 | 0.00 | 90 | 1017.1 |
| 20260507082504 | 0 | 244 | 4.8 | 6.4 | 0.00 | 0.74 | 0.00 | 90 | 1017.3 |
| 20260507082004 | 0 | 246 | 4.8 | 6.4 | 0.00 | 0.74 | 0.00 | 90 | 1017.4 |
| 20260507081503 | 0 | 244 | 6.4 | 8.0 | 0.00 | 0.74 | 0.00 | 90 | 1017.2 |
| 20260507081004 | 0 | 238 | 6.4 | 9.7 | 0.00 | 0.76 | 0.00 | 90 | 1017.4 |
| 20260507080504 | 0 | 232 | 6.4 | 9.7 | 0.00 | 0.76 | 0.00 | 90 | 1017.4 |
| 20260507080218 | 0 | 230 | 6.4 | 9.7 | 0.00 | 0.76 | 0.00 | 90 | 1017.4 |
| 20260507075503 | 0 | 228 | 4.8 | 8.0 | 0.00 | 0.76 | 0.00 | 90 | 1017.5 |
| 20260507075213 | 0 | 227 | 4.8 | 8.0 | 0.00 | 0.76 | 0.00 | 89 | 1017.5 |
| 20260507074504 | 0 | 227 | 6.4 | 8.0 | 0.00 | 0.76 | 0.00 | 90 | 1017.6 |
| 20260507074214 | 0 | 228 | 6.4 | 9.7 | 0.00 | 0.76 | 0.00 | 90 | 1017.7 |
| 20260507073503 | 0 | 234 | 6.4 | 9.7 | 0.00 | 0.76 | 0.00 | 90 | 1017.7 |
| 20260507073004 | 0 | 239 | 8.0 | 11.3 | 0.00 | 0.76 | 0.00 | 90 | 1017.7 |
| 20260507072503 | 1 | 239 | 8.0 | 11.3 | 0.00 | 0.76 | 0.00 | 90 | 1017.7 |
| 20260507072216 | 1 | 238 | 8.0 | 11.3 | 0.00 | 0.76 | 0.00 | 90 | 1017.8 |
| 20260507071504 | 1 | 238 | 8.0 | 12.9 | 0.00 | 0.76 | 0.00 | 89 | 1018.0 |
| 20260507071004 | 1 | 234 | 8.0 | 12.9 | 0.00 | 0.76 | 0.00 | 89 | 1018.0 |
| 20260507070503 | 1 | 232 | 9.7 | 14.5 | 0.00 | 0.76 | 0.00 | 89 | 1017.9 |
| 20260507070009 | 1 | 236 | 11.3 | 14.5 | 0.00 | 0.76 | 0.00 | 89 | 1018.0 |
| 20260507065504 | 1 | 239 | 9.7 | 14.5 | 0.00 | 0.76 | 0.00 | 89 | 1018.0 |
| 20260507065003 | 1 | 241 | 8.0 | 12.9 | 0.00 | 0.76 | 0.00 | 89 | 1018.2 |
| 20260507064717 | 1 | 239 | 8.0 | 12.9 | 0.00 | 0.76 | 0.00 | 89 | 1018.1 |
| 20260507064215 | 1 | 229 | 6.4 | 11.3 | 0.00 | 0.76 | 0.00 | 90 | 1018.1 |
| 20260507063504 | 1 | 226 | 6.4 | 11.3 | 0.00 | 0.76 | 0.00 | 90 | 1018.1 |
| 20260507063008 | 1 | 231 | 6.4 | 11.3 | 0.00 | 0.76 | 0.00 | 90 | 1018.2 |
| 20260507062504 | 1 | 234 | 6.4 | 9.7 | 0.00 | 0.79 | 0.00 | 90 | 1018.1 |
| 20260507062005 | 1 | 230 | 6.4 | 12.9 | 0.00 | 0.79 | 0.00 | 89 | 1018.3 |
| 20260507061503 | 1 | 226 | 6.4 | 12.9 | 0.00 | 0.79 | 0.00 | 90 | 1018.1 |
| 20260507061004 | 1 | 232 | 8.0 | 11.3 | 0.00 | 0.81 | 0.00 | 90 | 1018.1 |
| 20260507060504 | 1 | 240 | 6.4 | 9.7 | 0.00 | 0.81 | 0.00 | 90 | 1018.3 |
| 20260507060003 | 1 | 240 | 6.4 | 9.7 | 0.00 | 0.81 | 0.00 | 90 | 1018.3 |
| 20260507055504 | 1 | 240 | 6.4 | 9.7 | 0.00 | 0.84 | 0.81 | 90 | 1018.2 |
| 20260507055004 | 1 | 239 | 3.2 | 9.7 | 0.00 | 0.84 | 0.81 | 91 | 1018.3 |
| 20260507054504 | 1 | 232 | 1.6 | 8.0 | 0.00 | 0.84 | 0.81 | 90 | 1018.2 |
| 20260507054003 | 1 | 212 | 3.2 | 6.4 | 0.00 | 0.84 | 0.81 | 90 | 1018.2 |
| 20260507053503 | 1 | 213 | 4.8 | 6.4 | 0.00 | 0.84 | 0.81 | 90 | 1018.2 |
| 20260507053004 | 1 | 218 | 4.8 | 8.0 | 0.00 | 0.84 | 0.81 | 90 | 1018.3 |
| 20260507052503 | 1 | 225 | 4.8 | 9.7 | 0.00 | 0.84 | 0.81 | 90 | 1018.3 |
| 20260507052218 | 1 | 226 | 4.8 | 9.7 | 0.00 | 0.84 | 0.81 | 90 | 1018.4 |
| 20260507051508 | 1 | 221 | 4.8 | 8.0 | 0.00 | 0.84 | 0.81 | 90 | 1018.4 |
| 20260507051003 | 1 | 218 | 4.8 | 8.0 | 0.00 | 0.84 | 0.81 | 90 | 1018.4 |
| 20260507050717 | 1 | 215 | 4.8 | 8.0 | 0.00 | 0.84 | 0.81 | 90 | 1018.3 |
| 20260507050004 | 1 | 210 | 4.8 | 6.4 | 0.00 | 0.84 | 0.81 | 90 | 1018.4 |
| 20260507045504 | 1 | 216 | 4.8 | 6.4 | 0.00 | 0.84 | 0.81 | 90 | 1018.4 |
| 20260507045003 | 1 | 218 | 4.8 | 6.4 | 0.00 | 0.84 | 0.81 | 91 | 1018.4 |
| 20260507044504 | 1 | 217 | 3.2 | 6.4 | 0.00 | 0.84 | 0.81 | 91 | 1018.4 |
| 20260507044217 | 1 | 217 | 3.2 | 6.4 | 0.00 | 0.84 | 0.81 | 90 | 1018.4 |
| 20260507043714 | 1 | 218 | 3.2 | 6.4 | 0.00 | 0.84 | 0.81 | 91 | 1018.5 |
| 20260507043003 | 1 | 219 | 3.2 | 4.8 | 0.00 | 0.84 | 0.81 | 91 | 1018.6 |
| 20260507042504 | 1 | 219 | 3.2 | 4.8 | 0.00 | 0.84 | 0.81 | 91 | 1018.6 |
| 20260507042004 | 1 | 219 | 1.6 | 3.2 | 0.00 | 0.84 | 0.81 | 91 | 1018.6 |
| 20260507041504 | 1 | 219 | 0.0 | 3.2 | 0.00 | 0.84 | 0.81 | 90 | 1018.6 |
| 20260507041003 | 1 | 219 | 1.6 | 3.2 | 0.00 | 0.84 | 0.81 | 90 | 1018.7 |
| 20260507040505 | 2 | 219 | 1.6 | 3.2 | 0.00 | 0.84 | 0.81 | 90 | 1018.5 |
| 20260507040215 | 2 | 219 | 1.6 | 3.2 | 0.00 | 0.84 | 0.81 | 90 | 1018.5 |
| 20260507035503 | 2 | 219 | 3.2 | 4.8 | 0.00 | 0.84 | 0.81 | 90 | 1018.4 |
| 20260507035003 | 2 | 219 | 1.6 | 4.8 | 0.00 | 0.84 | 0.81 | 90 | 1018.4 |
| 20260507034504 | 1 | 219 | 0.0 | 3.2 | 0.00 | 0.84 | 0.81 | 89 | 1018.5 |
| 20260507034004 | 2 | 0 | 0.0 | 0.0 | 0.00 | 0.86 | 0.81 | 89 | 1018.4 |
| 20260507033503 | 2 | 0 | 0.0 | 0.0 | 0.00 | 0.86 | 0.81 | 90 | 1018.4 |
| 20260507033004 | 2 | 0 | 0.0 | 0.0 | 0.00 | 0.86 | 0.81 | 90 | 1018.4 |
| 20260507032716 | 2 | 0 | 0.0 | 0.0 | 0.00 | 0.86 | 0.81 | 89 | 1018.5 |
| 20260507032003 | 2 | 0 | 0.0 | 0.0 | 0.00 | 0.89 | 0.81 | 88 | 1018.3 |
| 20260507031504 | 2 | 0 | 0.0 | 0.0 | 0.00 | 0.89 | 0.81 | 89 | 1018.4 |
| 20260507031004 | 2 | 0 | 0.0 | 0.0 | 0.00 | 0.89 | 0.81 | 89 | 1018.3 |
| 20260507030503 | 2 | 0 | 0.0 | 0.0 | 0.00 | 0.89 | 0.81 | 89 | 1018.3 |
| 20260507030004 | 2 | 0 | 0.0 | 0.0 | 0.00 | 0.89 | 0.81 | 88 | 1018.2 |
| 20260507025504 | 2 | 0 | 0.0 | 0.0 | 0.00 | 0.91 | 0.81 | 87 | 1018.2 |
| 20260507025003 | 3 | 0 | 0.0 | 0.0 | 0.00 | 0.91 | 0.81 | 87 | 1018.2 |
| 20260507024715 | 3 | 0 | 0.0 | 0.0 | 0.00 | 0.91 | 0.81 | 87 | 1018.2 |
| 20260507024004 | 3 | 0 | 0.0 | 0.0 | 0.00 | 0.91 | 0.81 | 87 | 1018.0 |
| 20260507023504 | 3 | 219 | 0.0 | 1.6 | 0.00 | 0.91 | 0.81 | 86 | 1018.1 |
| 20260507023003 | 3 | 219 | 1.6 | 1.6 | 0.00 | 0.91 | 0.81 | 85 | 1018.1 |
| 20260507022509 | 3 | 219 | 1.6 | 1.6 | 0.00 | 0.91 | 0.81 | 84 | 1018.1 |
| 20260507022004 | 3 | 219 | 1.6 | 3.2 | 0.00 | 0.91 | 0.81 | 83 | 1018.0 |
| 20260507021503 | 4 | 219 | 1.6 | 3.2 | 0.00 | 0.91 | 0.81 | 83 | 1018.0 |
| 20260507021009 | 4 | 219 | 3.2 | 3.2 | 0.00 | 0.91 | 0.81 | 82 | 1018.0 |
| 20260507020503 | 4 | 219 | 1.6 | 3.2 | 0.00 | 0.91 | 0.81 | 82 | 1018.0 |
| 20260507020003 | 5 | 219 | 1.6 | 3.2 | 0.00 | 0.91 | 0.81 | 81 | 1018.0 |
| 20260507015509 | 5 | 219 | 1.6 | 3.2 | 0.00 | 0.94 | 0.81 | 79 | 1018.2 |
| 20260507015004 | 5 | 219 | 3.2 | 4.8 | 0.00 | 0.97 | 0.81 | 78 | 1018.2 |
| 20260507014503 | 6 | 219 | 3.2 | 6.4 | 0.00 | 0.99 | 0.81 | 77 | 1018.2 |
| 20260507014004 | 6 | 219 | 4.8 | 8.0 | 0.00 | 0.99 | 0.81 | 76 | 1018.1 |
| 20260507013504 | 6 | 218 | 6.4 | 8.0 | 0.00 | 1.02 | 0.81 | 75 | 1018.1 |
| 20260507013004 | 6 | 217 | 6.4 | 9.7 | 0.00 | 1.04 | 0.81 | 74 | 1018.1 |
| 20260507012508 | 7 | 214 | 6.4 | 9.7 | 0.00 | 1.07 | 0.81 | 72 | 1018.0 |
| 20260507012220 | 7 | 214 | 4.8 | 9.7 | 0.00 | 1.07 | 0.81 | 72 | 1018.0 |
| 20260507011713 | 7 | 226 | 1.6 | 8.0 | 0.00 | 1.07 | 0.81 | 72 | 1018.0 |
| 20260507011003 | 7 | 227 | 3.2 | 6.4 | 0.00 | 1.07 | 0.81 | 72 | 1018.0 |
| 20260507010714 | 7 | 231 | 4.8 | 8.0 | 0.00 | 1.07 | 0.81 | 72 | 1018.0 |
| 20260507010004 | 7 | 230 | 6.4 | 8.0 | 0.00 | 1.07 | 0.81 | 71 | 1017.9 |
| 20260507005503 | 7 | 229 | 6.4 | 11.3 | 0.00 | 1.07 | 0.81 | 72 | 1018.0 |
| 20260507005003 | 7 | 234 | 6.4 | 11.3 | 0.00 | 1.07 | 0.81 | 72 | 1017.9 |
| 20260507004504 | 7 | 235 | 4.8 | 9.7 | 0.00 | 1.07 | 0.81 | 72 | 1017.7 |
| 20260507004004 | 7 | 226 | 4.8 | 8.0 | 0.00 | 1.07 | 0.81 | 70 | 1017.9 |
| 20260507003503 | 7 | 226 | 3.2 | 8.0 | 0.00 | 1.07 | 0.81 | 71 | 1017.7 |
| 20260507003003 | 7 | 234 | 3.2 | 8.0 | 0.00 | 1.07 | 0.81 | 72 | 1017.6 |
| 20260507002504 | 7 | 229 | 3.2 | 8.0 | 0.00 | 1.07 | 0.81 | 72 | 1017.8 |
| 20260507002216 | 7 | 219 | 3.2 | 8.0 | 0.00 | 1.07 | 0.81 | 71 | 1018.0 |
| 20260507001503 | 7 | 217 | 1.6 | 6.4 | 0.00 | 1.07 | 0.81 | 72 | 1017.9 |
| 20260507001217 | 7 | 223 | 1.6 | 6.4 | 0.00 | 1.07 | 0.81 | 70 | 1017.8 |
| 20260507000504 | 7 | 224 | 1.6 | 3.2 | 0.00 | 1.07 | 0.81 | 73 | 1017.9 |
| 20260507000004 | 6 | 248 | 1.6 | 4.8 | 0.00 | 1.07 | 0.81 | 75 | 1017.9 |
| 20260506235503 | 6 | 262 | 3.2 | 4.8 | 0.00 | 1.07 | 0.81 | 78 | 1017.9 |
| 20260506235008 | 6 | 256 | 1.6 | 8.0 | 0.00 | 1.07 | 0.81 | 79 | 1018.0 |
| 20260506234504 | 6 | 217 | 1.6 | 8.0 | 0.00 | 1.07 | 0.81 | 81 | 1018.0 |
| 20260506234003 | 6 | 249 | 1.6 | 6.4 | 0.00 | 1.07 | 0.81 | 79 | 1018.0 |
| 20260506233504 | 6 | 317 | 1.6 | 6.4 | 0.00 | 1.07 | 0.81 | 79 | 1018.1 |
| 20260506233004 | 6 | 13 | 0.0 | 1.6 | 0.00 | 1.07 | 0.81 | 79 | 1018.1 |
| 20260506232503 | 6 | 330 | 0.0 | 4.8 | 0.00 | 1.07 | 0.81 | 81 | 1018.2 |
| 20260506232216 | 6 | 260 | 0.0 | 4.8 | 0.00 | 1.07 | 0.81 | 81 | 1018.2 |
| 20260506231504 | 6 | 311 | 0.0 | 6.4 | 0.00 | 1.07 | 0.81 | 82 | 1018.0 |
| 20260506231217 | 5 | 7 | 1.6 | 6.4 | 0.00 | 1.07 | 0.81 | 84 | 1017.7 |
| 20260506230715 | 5 | 13 | 1.6 | 4.8 | 0.00 | 1.07 | 0.81 | 84 | 1017.6 |
| 20260506230004 | 5 | 13 | 1.6 | 6.4 | 0.00 | 1.07 | 0.81 | 85 | 1017.6 |
| 20260506225504 | 5 | 13 | 3.2 | 6.4 | 0.00 | 1.07 | 0.81 | 85 | 1017.7 |
| 20260506225004 | 5 | 13 | 3.2 | 6.4 | 0.00 | 1.07 | 0.81 | 86 | 1017.7 |
| 20260506224503 | 5 | 21 | 3.2 | 8.0 | 0.00 | 1.07 | 0.81 | 86 | 1017.6 |
| 20260506224215 | 5 | 29 | 3.2 | 8.0 | 0.00 | 1.07 | 0.81 | 86 | 1017.6 |
| 20260506223713 | 5 | 45 | 3.2 | 8.0 | 0.00 | 1.07 | 0.81 | 86 | 1017.9 |
| 20260506223003 | 5 | 51 | 4.8 | 9.7 | 0.00 | 1.07 | 0.81 | 87 | 1017.7 |
| 20260506222504 | 5 | 43 | 4.8 | 11.3 | 0.00 | 1.07 | 0.81 | 87 | 1017.7 |
| 20260506222004 | 4 | 18 | 6.4 | 11.3 | 0.00 | 1.07 | 0.81 | 86 | 1017.7 |
| 20260506221504 | 5 | 6 | 6.4 | 11.3 | 0.00 | 1.07 | 0.81 | 85 | 1017.8 |
| 20260506221003 | 5 | 15 | 4.8 | 11.3 | 0.00 | 1.07 | 0.81 | 86 | 1018.0 |
| 20260506220716 | 5 | 14 | 4.8 | 11.3 | 0.00 | 1.07 | 0.81 | 85 | 1018.0 |
| 20260506220004 | 5 | 357 | 3.2 | 8.0 | 0.03 | 1.07 | 0.81 | 87 | 1018.1 |
| 20260506215503 | 5 | 8 | 1.6 | 6.4 | 0.03 | 1.07 | 0.81 | 89 | 1018.0 |
| 20260506215003 | 4 | 35 | 1.6 | 6.4 | 0.05 | 1.07 | 0.81 | 90 | 1018.0 |
| 20260506214504 | 4 | 73 | 1.6 | 4.8 | 0.08 | 1.07 | 0.81 | 89 | 1017.8 |
| 20260506214003 | 4 | 69 | 3.2 | 8.0 | 0.10 | 1.07 | 0.81 | 89 | 1017.7 |
| 20260506213503 | 3 | 64 | 4.8 | 8.0 | 0.13 | 1.07 | 0.81 | 90 | 1017.9 |
| 20260506213004 | 3 | 45 | 4.8 | 8.0 | 0.15 | 1.07 | 0.81 | 90 | 1017.7 |
| 20260506212715 | 3 | 37 | 4.8 | 8.0 | 0.15 | 1.07 | 0.81 | 90 | 1017.6 |
| 20260506212003 | 3 | 33 | 3.2 | 8.0 | 0.15 | 1.07 | 0.81 | 90 | 1017.6 |
| 20260506211716 | 3 | 35 | 3.2 | 8.0 | 0.15 | 1.07 | 0.81 | 90 | 1017.8 |
| 20260506211004 | 3 | 300 | 1.6 | 4.8 | 0.15 | 1.07 | 0.81 | 90 | 1018.1 |
| 20260506210504 | 3 | 300 | 1.6 | 3.2 | 0.15 | 1.07 | 0.81 | 90 | 1018.0 |
| 20260506210003 | 3 | 300 | 1.6 | 4.8 | 0.13 | 1.04 | 0.79 | 90 | 1018.1 |
| 20260506205504 | 3 | 300 | 3.2 | 4.8 | 0.15 | 1.04 | 0.79 | 90 | 1018.2 |
| 20260506205004 | 3 | 305 | 4.8 | 8.0 | 0.13 | 1.02 | 0.76 | 90 | 1018.2 |
| 20260506204713 | 3 | 303 | 4.8 | 8.0 | 0.10 | 0.99 | 0.74 | 89 | 1018.3 |
| 20260506204216 | 3 | 305 | 3.2 | 8.0 | 0.08 | 0.97 | 0.71 | 89 | 1018.3 |
| 20260506203504 | 3 | 79 | 1.6 | 4.8 | 0.05 | 0.94 | 0.69 | 89 | 1018.3 |
| 20260506203003 | 3 | 92 | 1.6 | 4.8 | 0.03 | 0.91 | 0.66 | 90 | 1018.2 |
| 20260506202715 | 3 | 96 | 1.6 | 4.8 | 0.03 | 0.91 | 0.66 | 89 | 1018.2 |
| 20260506202005 | 3 | 98 | 3.2 | 4.8 | 0.03 | 0.91 | 0.66 | 90 | 1018.1 |
| 20260506201504 | 3 | 81 | 1.6 | 6.4 | 0.03 | 0.91 | 0.66 | 90 | 1018.1 |
| 20260506201003 | 3 | 74 | 1.6 | 6.4 | 0.05 | 0.91 | 0.66 | 90 | 1018.1 |
| 20260506200717 | 3 | 71 | 3.2 | 6.4 | 0.05 | 0.91 | 0.66 | 90 | 1018.1 |
| 20260506200004 | 3 | 71 | 3.2 | 6.4 | 0.08 | 0.91 | 0.66 | 90 | 1018.0 |
| 20260506195503 | 3 | 77 | 4.8 | 8.0 | 0.05 | 0.89 | 0.64 | 90 | 1018.0 |
| 20260506195004 | 3 | 79 | 4.8 | 8.0 | 0.05 | 0.89 | 0.64 | 90 | 1017.9 |
| 20260506194504 | 3 | 68 | 4.8 | 11.3 | 0.05 | 0.89 | 0.64 | 90 | 1017.8 |
| 20260506194217 | 3 | 56 | 4.8 | 11.3 | 0.05 | 0.89 | 0.64 | 90 | 1017.9 |
| 20260506193503 | 3 | 49 | 6.4 | 9.7 | 0.05 | 0.89 | 0.64 | 90 | 1017.6 |
| 20260506193004 | 3 | 57 | 6.4 | 9.7 | 0.05 | 0.89 | 0.64 | 91 | 1017.6 |
| 20260506192505 | 3 | 62 | 4.8 | 9.7 | 0.05 | 0.89 | 0.64 | 90 | 1017.5 |
| 20260506192003 | 3 | 48 | 4.8 | 11.3 | 0.05 | 0.89 | 0.64 | 90 | 1017.5 |
| 20260506191503 | 3 | 49 | 4.8 | 11.3 | 0.05 | 0.89 | 0.64 | 89 | 1017.6 |
| 20260506191215 | 3 | 55 | 4.8 | 11.3 | 0.03 | 0.86 | 0.61 | 89 | 1017.7 |
| 20260506190504 | 3 | 69 | 4.8 | 9.7 | 0.03 | 0.86 | 0.61 | 90 | 1017.6 |
| 20260506190005 | 3 | 62 | 6.4 | 11.3 | 0.00 | 0.84 | 0.58 | 90 | 1017.5 |
| 20260506185714 | 3 | 59 | 6.4 | 11.3 | 0.00 | 0.84 | 0.58 | 90 | 1017.4 |
| 20260506185003 | 3 | 67 | 6.4 | 11.3 | 0.00 | 0.84 | 0.58 | 90 | 1017.5 |
| 20260506184504 | 3 | 75 | 6.4 | 11.3 | 0.00 | 0.84 | 0.58 | 90 | 1017.5 |
| 20260506184004 | 3 | 78 | 6.4 | 14.5 | 0.00 | 0.84 | 0.58 | 91 | 1017.5 |
| 20260506183503 | 3 | 82 | 6.4 | 14.5 | 0.03 | 0.84 | 0.58 | 90 | 1017.5 |
| 20260506183003 | 3 | 84 | 6.4 | 11.3 | 0.03 | 0.84 | 0.58 | 91 | 1017.4 |
| 20260506182509 | 3 | 83 | 6.4 | 11.3 | 0.03 | 0.84 | 0.58 | 91 | 1017.7 |
| 20260506182003 | 3 | 83 | 8.0 | 12.9 | 0.03 | 0.84 | 0.58 | 91 | 1017.5 |
| 20260506181503 | 3 | 83 | 8.0 | 12.9 | 0.03 | 0.84 | 0.58 | 92 | 1017.4 |
| 20260506181004 | 3 | 80 | 9.7 | 14.5 | 0.03 | 0.84 | 0.58 | 92 | 1017.5 |
| 20260506180503 | 3 | 78 | 8.0 | 14.5 | 0.03 | 0.84 | 0.58 | 93 | 1017.5 |
| 20260506180013 | 3 | 78 | 8.0 | 14.5 | 0.03 | 0.84 | 0.58 | 93 | 1017.4 |
| 20260506175504 | 2 | 77 | 8.0 | 14.5 | 0.03 | 0.84 | 0.58 | 93 | 1017.4 |
| 20260506175004 | 2 | 74 | 8.0 | 14.5 | 0.05 | 0.84 | 0.58 | 93 | 1017.4 |
| 20260506174504 | 2 | 72 | 8.0 | 14.5 | 0.05 | 0.84 | 0.58 | 93 | 1017.5 |
| 20260506174003 | 2 | 77 | 8.0 | 12.9 | 0.05 | 0.84 | 0.58 | 93 | 1017.5 |
| 20260506173504 | 2 | 77 | 8.0 | 16.1 | 0.03 | 0.81 | 0.56 | 93 | 1017.6 |
| 20260506173003 | 2 | 75 | 9.7 | 16.1 | 0.03 | 0.81 | 0.56 | 93 | 1017.5 |
| 20260506172503 | 2 | 79 | 9.7 | 12.9 | 0.05 | 0.81 | 0.56 | 93 | 1017.5 |
| 20260506172004 | 2 | 75 | 8.0 | 12.9 | 0.05 | 0.81 | 0.56 | 93 | 1017.4 |
| 20260506171504 | 2 | 67 | 8.0 | 12.9 | 0.05 | 0.81 | 0.56 | 93 | 1017.4 |
| 20260506171004 | 2 | 66 | 8.0 | 12.9 | 0.08 | 0.81 | 0.56 | 93 | 1017.5 |
| 20260506170714 | 2 | 65 | 8.0 | 12.9 | 0.08 | 0.81 | 0.56 | 93 | 1017.5 |